Voltar ao catálogo

SL-16 DEB

AtivoLEO
NORAD 22348·DEBRIS·🇷🇺 Russia

Lançado Dec 25, 1992 de Baikonur Cosmodrome

Loading…

Próximas Passagens (próximas 24 horas)

TLE

AtualizadoSource: Space-Track

Época: Sep 14, 2026, 15:40 UTC

1 22348U 92093AM  26257.65303787  .00000315  00000-0  19572-3 0  9999
2 22348  71.2610  25.2176 0104656 239.1884 134.4116 14.09513249725998

Acompanhe SL-16 DEB em tempo real com AllMySat

Download on the App Store